Hourly Data Report for October 01, 2016

All times are specified in Local Standard Time (LST). Add 1 hour to adjust for Daylight Saving Time where and when it is observed.

CLYDE RIVER A
NUNAVUT

70°29'09.000" N
68°31'01.000" W
26.50 m
2400804
71090
YCY

Related Data

No related data is available for this station

Download Data

Hourly Data (October 2016)
Hourly Data Report for October 1, 2016
Temp Definition
°C
Dew Point Temp Definition
°C
Rel Hum Definition
%
Wind Dir Definition
10's deg

Wind Spd Definition
km/h
Visibility Definition
km
Stn Press Definition
kPa
Hmdx Definition


Wind Chill Definition


Weather Definition


TIME
00:00 Legend Double Dagger 0.1 -2.1 85 33 41 16.1 100.66     LegendNANA
01:00 Legend Double Dagger -0.1 -2.8 82 33 46 16.1 100.63   -8 LegendNANA
02:00 Legend Double Dagger -0.2 -2.6 84 33 41 16.1 100.68   -8 LegendNANA
03:00 Legend Double Dagger -0.2 -2.9 82 33 46 16.1 100.69   -8 LegendNANA
04:00 Legend Double Dagger 0.0 -2.7 82 32 34 16.1 100.72   -7 LegendNANA
05:00 Legend Double Dagger 0.0 -3.6 77 32 39 16.1 100.73   -7 LegendNANA
06:00 Legend Double Dagger -0.1 -3.7 77 32 46 16.1 100.69   -8 LegendNANA
07:00 Legend Double Dagger 0.0 -4.1 74 32 46 16.1 100.69   -8 LegendNANA
08:00 Legend Double Dagger 0.2 -4.5 71 32 45 16.1 100.71     LegendNANA
09:00 Legend Double Dagger 0.3 -4.1 73 32 39 16.1 100.72     LegendNANA
10:00 Legend Double Dagger 0.5 -4.4 70 32 54 16.1 100.67     LegendNANA
11:00 Legend Double Dagger 0.1 -4.1 73 31 37 16.1 100.69     LegendNANA
12:00 Legend Double Dagger 0.4 -4.6 69 32 37 16.1 100.71     LegendNANA
13:00 Legend Double Dagger 0.4 -4.5 70 31 45 16.1 100.69     LegendNANA
14:00 Legend Double Dagger 0.5 -4.7 68 31 45 16.1 100.69     LegendNANA
15:00 Legend Double Dagger 0.6 -5.2 65 33 48 16.1 100.71     LegendNANA
16:00 Legend Double Dagger 0.2 -4.2 72 32 43 16.1 100.71     LegendNANA
17:00 Legend Double Dagger -0.1 -4.9 70 32 37 16.1 100.71   -7 LegendNANA
18:00 Legend Double Dagger -0.6 -4.3 76 31 24 16.1 100.71   -7 LegendNANA
19:00 Legend Double Dagger -1.4 -4.8 78 31 28 16.1 100.69   -8 LegendNANA
20:00 Legend Double Dagger -1.5 -5.4 75 30 24 16.1 100.68   -8 LegendNANA
21:00 Legend Double Dagger -1.4 -4.8 78 30 21 16.1 100.63   -7 LegendNANA
22:00 Legend Double Dagger -1.0 -4.5 77 31 30 16.1 100.58   -8 LegendNANA
23:00 Legend Double Dagger -1.5 -5.4 75 30 24 16.1 100.58   -8 LegendNANA

Notes on Data Quality.

Legend

  • E = Estimated
  • M = Missing
  • NA = Not Available
  • ‡ = Partner data that is not subject to review by the National Climate Archives
Date modified: